Weather History for Ames, IA

Change the Weather History Date:

Thursday, November 1, 2012

  Actual Average Record
Temperature  
Mean Temperature 45 °F 44 °F  
Max Temperature 56 °F 55 °F 73 °F (2000)
Min Temperature 34 °F 33 °F 16 °F (1996)
Degree Days  
Heating Degree Days 20 21  
Month to date heating degree days 20 21  
Since 1 July heating degree days 672 617  
Cooling Degree Days 0 0  
Month to date cooling degree days 0 0  
Year to date cooling degree days 1067 752  
Moisture  
Dew Point 34 °F    
Average Humidity 66    
Maximum Humidity 85    
Minimum Humidity 46    
Precipitation  
Precipitation 0.00 in 0.10 in 2.22 in (1991)
Month to date precipitation 0.00 0.10  
Sea Level Pressure  
Sea Level Pressure 29.97 in    
Wind  
Wind Speed 9 mph (NW)    
Max Wind Speed 20 mph    
Max Gust Speed 24 mph    
Visibility 8 miles    
Events      
T = Trace of Precipitation, MM = Missing Value Source: NWS Daily Summary

Daily Weather History Graph

Daily Weather History Graph

Search for Another Location

Airport:

Trip Planner

Search our weather history database for the weather conditions in past years. The results will help you decide how hot, cold, wet, or windy it might be!

Date:

Astronomy

Nov. 01, 2012 Rise Set
Actual Time 7:47 AM CDT 6:07 PM CDT
Civil Twilight 7:18 AM CDT 6:36 PM CDT
Nautical Twilight 6:45 AM CDT 7:09 PM CDT
Astronomical Twilight 6:13 AM CDT 7:42 PM CDT
Moon 8:03 PM CDT (11/1) 10:22 AM CDT (11/1)
Length of Visible Light 11h 18m
Length of Day
10h 20m
Waning Gibbous, 93% of the Moon is Illuminated
Nov 1
Waning Gibbous
Nov 6
Last Quarter
Nov 13
New
Nov 20
First Quarter
Nov 28
Full

Hourly Weather History & Observations

Time (CDT) Temp. Windchill Dew Point Humidity Pressure Visibility Wind Dir Wind Speed Gust Speed Precip Events Conditions
12:53 AM 33.1 °F 30.0 °F 28.0 °F 82% 29.99 in 10.0 mi SW 3.5 mph - N/A   Mostly Cloudy
1:53 AM 37.0 °F - 30.9 °F 79% 29.98 in 10.0 mi Calm Calm - N/A   Mostly Cloudy
2:53 AM 36.0 °F - 30.9 °F 82% 29.98 in 10.0 mi Calm Calm - N/A   Clear
3:53 AM 39.0 °F - 32.0 °F 76% 29.96 in 10.0 mi Calm Calm - N/A   Partly Cloudy
4:53 AM 44.1 °F 38.6 °F 34.0 °F 68% 29.96 in 3.0 mi West 10.4 mph - N/A   Haze
5:53 AM 45.0 °F 40.6 °F 35.1 °F 68% 29.96 in 3.0 mi West 8.1 mph - N/A   Haze
6:53 AM 39.9 °F 37.8 °F 34.0 °F 79% 29.95 in 3.0 mi West 3.5 mph - N/A   Haze
7:53 AM 37.9 °F 33.5 °F 33.1 °F 83% 29.96 in 2.0 mi WNW 5.8 mph - N/A   Haze
8:01 AM 37.4 °F 32.8 °F 33.8 °F 87% 29.94 in 1.8 mi WNW 5.8 mph - N/A   Haze
8:10 AM 41.0 °F 36.4 °F 33.8 °F 76% 29.95 in 2.5 mi WNW 6.9 mph - N/A   Haze
8:25 AM 44.6 °F 40.2 °F 35.6 °F 71% 29.95 in 4.0 mi NW 8.1 mph - N/A   Haze
8:53 AM 46.0 °F 39.9 °F 37.0 °F 71% 29.98 in 6.0 mi NNW 13.8 mph - N/A   Haze
9:53 AM 48.0 °F - 37.9 °F 68% 29.98 in 8.0 mi NNW 10.4 mph - N/A   Clear
10:53 AM 51.1 °F - 39.0 °F 63% 29.99 in 8.0 mi NNW 16.1 mph - N/A   Clear
11:53 AM 52.0 °F - 37.9 °F 59% 29.99 in 9.0 mi NNW 17.3 mph - N/A   Clear
12:53 PM 54.0 °F - 39.0 °F 57% 29.97 in 9.0 mi North 13.8 mph - N/A   Clear
1:53 PM 55.0 °F - 37.9 °F 53% 29.96 in 10.0 mi NNW 11.5 mph - N/A   Clear
2:53 PM 55.0 °F - 37.9 °F 53% 29.94 in 10.0 mi NNW 17.3 mph - N/A   Clear
4:53 PM 53.1 °F - 33.1 °F 47% 29.95 in 10.0 mi NNW 10.4 mph - N/A   Clear
6:53 PM 45.0 °F 41.2 °F 30.9 °F 58% 29.97 in 10.0 mi NNW 6.9 mph - N/A   Clear
7:53 PM 42.1 °F 37.1 °F 30.9 °F 65% 29.99 in 10.0 mi NNW 8.1 mph - N/A   Clear
8:53 PM 39.9 °F 34.5 °F 30.0 °F 68% 29.99 in 10.0 mi NNW 8.1 mph - N/A   Clear
9:53 PM 37.0 °F 31.0 °F 28.9 °F 73% 30.01 in 10.0 mi North 8.1 mph - N/A   Clear
10:53 PM 36.0 °F 30.3 °F 28.9 °F 76% 30.02 in 10.0 mi North 6.9 mph - N/A   Clear
11:53 PM 35.1 °F 31.0 °F 28.0 °F 76% 30.02 in 10.0 mi NNE 4.6 mph - N/A   Clear